Location: Hamburg
(53.5500°N, 10.0000°E)
Time: 10:50:44
(UTC+01:00)

A-11 Canister half - All Passes

Search period start: 08 December 2016 00:00
Search period end: 18 December 2016 00:00
Orbit: 1527 x 1682 km, 47.3° (Epoch: 07 December)

Date Brightness Start Highest point End Pass type
(mag) Time Alt. Az. Time Alt. Az. Time Alt. Az.
08 Dec - 00:18:23 10° WSW 00:21:17 12° WSW 00:24:11 10° SW night (unlit)
08 Dec - 13:39:24 10° SE 13:42:27 12° ESE 13:45:30 10° ESE daylight
08 Dec - 15:36:17 10° SSW 15:45:02 35° SE 15:53:48 10° E daylight
08 Dec - 17:39:04 10° WSW 17:48:55 58° SSE 17:58:40 10° E visible
08 Dec - 19:43:29 10° W 19:53:21 59° SSW 20:03:00 10° ESE visible
08 Dec - 21:48:24 10° W 21:57:14 36° SW 22:05:51 10° SSE visible
08 Dec - 23:56:12 10° WSW 23:59:50 13° WSW 00:03:26 10° SW visible
09 Dec - 13:18:51 10° SE 13:20:59 11° ESE 13:23:06 10° ESE daylight
09 Dec - 15:14:51 10° SSW 15:23:30 34° SE 15:32:10 10° E daylight
09 Dec - 17:17:30 10° WSW 17:27:20 57° SSE 17:37:05 10° E visible
09 Dec - 19:21:52 10° W 19:31:46 59° S 19:41:27 10° ESE visible
09 Dec - 21:26:47 10° W 21:35:42 38° SW 21:44:25 10° SSE visible
09 Dec - 23:34:10 10° W 23:38:22 13° SW 23:42:32 10° SSW visible
10 Dec - 14:53:26 10° SSW 15:01:59 33° SE 15:10:32 10° E daylight
10 Dec - 16:55:57 10° WSW 17:05:46 57° SSE 17:15:31 10° E visible
10 Dec - 19:00:17 10° W 19:10:11 60° S 19:19:55 10° ESE visible
10 Dec - 21:05:09 10° W 21:14:10 39° SSW 21:22:59 10° SSE visible
10 Dec - 23:12:12 10° W 23:16:54 14° SW 23:21:33 10° SSW visible
11 Dec - 14:32:01 10° SSW 14:40:27 32° SE 14:48:54 10° E daylight
11 Dec - 16:34:24 10° WSW 16:44:11 56° SSE 16:53:55 10° E visible
11 Dec - 18:38:40 10° W 18:48:36 61° S 18:58:22 10° ESE visible
11 Dec - 20:43:31 10° W 20:52:38 40° SSW 21:01:33 10° SSE visible
11 Dec - 22:50:18 10° W 22:55:26 15° SW 23:00:31 10° SSW visible
12 Dec - 14:10:37 10° SSW 14:18:55 30° SE 14:27:16 10° E daylight
12 Dec - 16:12:51 10° SW 16:22:36 55° SSE 16:32:20 10° E daylight
12 Dec - 18:17:05 10° W 18:27:01 61° S 18:36:48 10° ESE visible
12 Dec - 20:21:55 10° W 20:31:05 41° SSW 20:40:05 10° SE visible
12 Dec - 22:28:26 10° W 22:33:58 16° SW 22:39:25 10° SSW visible
13 Dec - 13:49:14 10° SSW 13:57:24 29° SE 14:05:36 10° E daylight
13 Dec - 15:51:19 10° SW 16:01:02 54° SSE 16:10:45 10° E daylight
13 Dec - 17:55:30 10° W 18:05:25 61° S 18:15:15 10° ESE visible
13 Dec - 20:00:17 10° W 20:09:33 42° SSW 20:18:37 10° SE visible
13 Dec - 22:06:37 10° W 22:12:30 17° SW 22:18:17 10° SSW visible
14 Dec - 13:27:52 10° SSW 13:35:53 28° SE 13:43:57 10° E daylight
14 Dec - 15:29:47 10° SW 15:39:27 53° SSE 15:49:09 10° E daylight
14 Dec - 17:33:54 10° W 17:43:50 62° S 17:53:41 10° ESE visible
14 Dec - 19:38:40 10° W 19:48:00 43° SSW 19:57:10 10° SE visible
14 Dec - 21:44:50 10° W 21:51:00 18° SW 21:57:07 10° SSW visible
15 Dec - 13:06:30 10° S 13:14:22 27° SE 13:22:17 10° E daylight
15 Dec - 15:08:15 10° SW 15:17:53 52° SSE 15:27:34 10° E daylight
15 Dec - 17:12:18 10° W 17:22:15 62° S 17:32:07 10° ESE visible
15 Dec - 19:17:04 10° W 19:26:27 45° SSW 19:35:41 10° SE visible
15 Dec - 21:23:04 10° W 21:29:31 19° SW 21:35:55 10° S visible
16 Dec - 12:45:10 10° S 12:52:51 26° SE 13:00:37 10° E daylight
16 Dec - 14:46:44 10° SW 14:56:19 51° SSE 15:05:58 10° E daylight
16 Dec - 16:50:44 10° W 17:00:40 62° S 17:10:33 10° ESE visible
16 Dec - 18:55:27 10° W 19:04:53 46° SSW 19:14:12 10° SE visible
16 Dec - 21:01:19 10° W 21:08:02 20° SW 21:14:40 10° S visible
17 Dec - 12:23:50 10° S 12:31:21 25° SE 12:38:56 10° E daylight
17 Dec - 14:25:12 10° SW 14:34:45 50° SSE 14:44:22 10° E daylight
17 Dec - 16:29:08 10° WSW 16:39:05 62° S 16:48:59 10° ESE visible
17 Dec - 18:33:50 10° W 18:43:20 47° SSW 18:52:43 10° SE visible
17 Dec - 20:39:35 10° W 20:46:32 22° SW 20:53:26 10° S visible
